Погода в Биберахе-на-Рисе

Германия     48°06′03″N   9°47′16″E
темп.,
°C
ветер,
м/с
пор.,
м/с
влажн.,
%
обл.,
%
осадки,
мм/ч
давл.,
гПа
погр.,
м
24 января, вс
вс2401:000ююз81694100 0.7 997884
04:00−1зюз8168983 0.1 999705
07:00−4юз7148848 0.1 1001478
10:00−3зюз713900 0.0 1004724
13:00−1зюз7118614 0.0 10031043
16:00−2юз510906 0.0 1004498
19:00−6юз479111 0.0 1005113
22:00−7ю238763 0.0 100522
25 января, пн
пн2501:00−6ююз228782 0.1 100332
04:00−6ю4895100 0.4 1002187
07:00−5ююз61395100 0.6 1002447
10:00−2юз71293100 0.1 1004785
13:000зюз698992 0.2 1004896
16:00−1з479582 0.7 1006432
19:00−4з369391 1.1 1010108
22:00−4зюз51095100 0.0 1014264
26 января, вт
вт2601:00−5зсз3695100 0.8 1017148
04:00−6зюз51096100 0.1 1019262
07:00−6юз4996100 0.5 1021248
10:00−5юз61193100 0.0 1023455
13:00−2зюз699292 0.1 1023601
16:00−3юз489398 0.0 1022397
19:00−6юз4109590 0.0 1024209
22:00−6юз5119594 0.0 1024270
27 января, ср
ср2701:00−7ююз5119298 0.0 1024236
04:00−7ююз51089100 0.0 1022231
07:00−6юз4988100 0.0 1022237
10:00−4юз61096100 1.3 1022457
13:00−1юз61094100 1.6 1020663
16:000зюз7129698 0.4 1020654
19:000юз6129999 0.7 1021420
22:00+1юз71497100 0.1 1020362
28 января, чт
чт2801:00+1юз61499100 0.3 1019441
04:00+1ююз71499100 0.8 1016399
07:00+2юз81899100 3.4 1012560
10:00+3юз82099100 5.5 1009613
13:00+4юз92099100 10.0 1008648
16:00+5юз91797100 1.3 1009572
19:00+5юз81798100 1.5 1009571
22:00+6юз102096100 2.3 1008863